Hanford, CA

4:42 AM PST on January 16, 2018 (GMT -0800)
Hanford Municipal

Weather History for KHJO - July, 2013

Change the Weather History Date:

Saturday, July 20, 2013

  Actual Average Record
Temperature  
Mean Temperature 84 °F 80 °F  
Max Temperature 105 °F 96 °F 106 °F (2009)
Min Temperature 62 °F 63 °F 57 °F (1999)
Degree Days  
Heating Degree Days 0    
Month to date heating degree days 0  
Since 1 June heating degree days 0  
Since 1 July heating degree days 0  
Cooling Degree Days 19    
Month to date cooling degree days 379  
Year to date cooling degree days 1044  
Since 1 June cooling degree days 792  
Growing Degree Days 34 (Base 50)    
Moisture  
Dew Point 52 °F    
Average Humidity 43    
Maximum Humidity 78    
Minimum Humidity 8    
Precipitation  
Precipitation 0.00 in 0.00 in 0.05 in (1985)
Month to date precipitation T 0.02  
Year to date precipitation 1.60 6.78  
Since 1 July precipitation T  
Snow  
Snow 0.00 in - - ()
Month to date snowfall 0.0  
Since 1 June snowfall 0.0  
Since 1 July snowfall 0.0  
Snow Depth 0.00 in    
Sea Level Pressure  
Sea Level Pressure 29.74 in    
Wind  
Wind Speed 3 mph (NW)    
Max Wind Speed 9 mph    
Max Gust Speed 13 mph    
Visibility 10 miles    
Events      
T = Trace of Precipitation, MM = Missing Value Source: NWS Daily Summary

Daily Weather History Graph

Daily Weather History Graph

Search for Another Location

Airport or City:

Trip Planner

Search our weather history database for the weather conditions in past years. The results will help you decide how hot, cold, wet, or windy it might be!

Date:

Astronomy

Jul. 20, 2013 Rise Set
Actual Time 5:56 AM PDT 8:13 PM PDT
Civil Twilight 5:26 AM PDT 8:42 PM PDT
Nautical Twilight 4:51 AM PDT 9:18 PM PDT
Astronomical Twilight 4:11 AM PDT 9:57 PM PDT
Moon 6:21 PM PDT (7/20) 3:41 AM PDT (7/20)
Length of Visible Light 15h 15m
Length of Day
14h 16m
Waxing Gibbous, 94% of the Moon is Illuminated
Jul 20
Waxing Gibbous
Jul 22
Full
Jul 29
Last Quarter
Aug 6
New
Aug 14
First Quarter

Hourly Weather History & Observations

Time (PDT) Temp. Heat Index Dew Point Humidity Pressure Visibility Wind Dir Wind Speed Gust Speed Precip Events Conditions
12:53 AM 80.1 °F - 52.0 °F 38% 29.78 in 10.0 mi WNW 3.5 mph - N/A   Clear
1:53 AM 75.0 °F - 53.1 °F 46% 29.79 in 10.0 mi Calm Calm - N/A   Clear
2:53 AM 66.9 °F - 55.9 °F 68% 29.78 in 10.0 mi Calm Calm - N/A   Clear
3:53 AM 68.0 °F - 57.9 °F 70% 29.77 in 10.0 mi WNW 3.5 mph - N/A   Clear
4:53 AM 64.0 °F - 57.0 °F 78% 29.76 in 10.0 mi Calm Calm - N/A   Clear
5:53 AM 64.0 °F - 57.0 °F 78% 29.77 in 10.0 mi Calm Calm - N/A   Clear
6:53 AM 66.0 °F - 57.0 °F 73% 29.78 in 8.0 mi Calm Calm - N/A   Clear
7:53 AM 75.0 °F - 53.1 °F 46% 29.79 in 10.0 mi West 3.5 mph - N/A   Clear
8:53 AM 80.1 °F 80.0 °F 54.0 °F 40% 29.79 in 10.0 mi West 5.8 mph - N/A   Clear
9:53 AM 84.9 °F - 52.0 °F 32% 29.78 in 10.0 mi WNW 4.6 mph - N/A   Clear
10:53 AM 89.1 °F - 51.1 °F 27% 29.78 in 10.0 mi NW 8.1 mph - N/A   Clear
11:53 AM 93.0 °F - 50.0 °F 23% 29.77 in 10.0 mi WSW 5.8 mph - N/A   Clear
12:53 PM 95.0 °F - 48.9 °F 21% 29.75 in 10.0 mi Calm Calm - N/A   Clear
1:53 PM 98.1 °F - 44.1 °F 16% 29.73 in 10.0 mi Calm Calm - N/A   Clear
2:53 PM 102.0 °F - 43.0 °F 13% 29.72 in 10.0 mi NW 6.9 mph - N/A   Partly Cloudy
3:53 PM 102.9 °F - 41.0 °F 12% 29.69 in 10.0 mi NNW 6.9 mph - N/A   Scattered Clouds
4:53 PM 104.0 °F - 32.0 °F 8% 29.67 in 10.0 mi North 5.8 mph - N/A   Mostly Cloudy
5:53 PM 102.9 °F - 43.0 °F 13% 29.66 in 10.0 mi NW 5.8 mph - N/A   Scattered Clouds
6:53 PM 100.9 °F - 51.1 °F 19% 29.67 in 10.0 mi North 8.1 mph - N/A   Clear
7:53 PM 96.1 °F 94.1 °F 55.0 °F 25% 29.68 in 10.0 mi NW 4.6 mph - N/A   Partly Cloudy
8:53 PM 93.0 °F 91.1 °F 55.0 °F 28% 29.68 in 10.0 mi Calm Calm - N/A   Partly Cloudy
9:53 PM 84.0 °F 83.3 °F 57.0 °F 40% 29.70 in 10.0 mi NNW 4.6 mph - N/A   Clear
10:53 PM 86.0 °F 85.0 °F 57.9 °F 38% 29.70 in 10.0 mi North 5.8 mph - N/A   Clear
11:53 PM 78.1 °F - 61.0 °F 56% 29.72 in 10.0 mi Calm Calm - N/A   Clear